SRR6374 EDDK-LFLL

Flight info

Callsign SRR6374
Flight time 1h 1m
Altitude 32000
Route NVO2R NVO Y868 NAVAK Z283 LNO/N0484F310 Z283 RITAX UT27 ROUSY DCT GTQ DCT POGOL DCT LASAT DCT MOROK Z24 BOLGI T14 MILPA
Aircraft B77L/H-SDE1E2E3FGHIJ2J3J4J5M1RWXY/LB1D1

Departure

Time 2026-05-04 19:56
Airport Cologne Bonn Airport (EDDK)

Arrival

Time 2026-05-04 20:57
Airport Lyon Saint-Exupéry Airport (LFLL)
Time Latitude Longitude Altitude Speed Heading
2026-05-04 19:23 50.86907 7.13749 250 ft 0 kts 227°
2026-05-04 19:42 50.86911 7.13756 250 ft 4 kts 227°
2026-05-04 19:42 50.86929 7.13788 250 ft 4 kts 227°
2026-05-04 19:42 50.86944 7.13814 250 ft 4 kts 225°
2026-05-04 19:43 50.86965 7.13836 250 ft 4 kts 184°
2026-05-04 19:43 50.86989 7.13827 248 ft 4 kts 143°
2026-05-04 19:43 50.87008 7.13800 248 ft 5 kts 137°
2026-05-04 19:43 50.87019 7.13784 247 ft 2 kts 137°
2026-05-04 19:48 50.87016 7.13789 247 ft 3 kts 137°
2026-05-04 19:49 50.86976 7.13846 249 ft 12 kts 137°
2026-05-04 19:49 50.86915 7.13935 255 ft 12 kts 137°
2026-05-04 19:49 50.86854 7.14024 260 ft 12 kts 137°
2026-05-04 19:49 50.86792 7.14110 259 ft 12 kts 145°
2026-05-04 19:50 50.86716 7.14166 262 ft 12 kts 146°
2026-05-04 19:50 50.86654 7.14253 265 ft 12 kts 136°
2026-05-04 19:50 50.86593 7.14344 266 ft 12 kts 136°
2026-05-04 19:50 50.86531 7.14433 268 ft 12 kts 138°
2026-05-04 19:51 50.86469 7.14521 273 ft 12 kts 137°
2026-05-04 19:51 50.86408 7.14610 276 ft 12 kts 137°
2026-05-04 19:51 50.86346 7.14700 280 ft 12 kts 137°
2026-05-04 19:51 50.86285 7.14790 283 ft 12 kts 137°
2026-05-04 19:52 50.86188 7.14929 289 ft 22 kts 137°
2026-05-04 19:52 50.86077 7.15090 297 ft 22 kts 137°
2026-05-04 19:52 50.85966 7.15250 302 ft 22 kts 137°
2026-05-04 19:52 50.85855 7.15411 305 ft 22 kts 137°
2026-05-04 19:53 50.85748 7.15565 308 ft 19 kts 137°
2026-05-04 19:53 50.85652 7.15705 309 ft 19 kts 137°
2026-05-04 19:53 50.85556 7.15844 313 ft 19 kts 137°
2026-05-04 19:53 50.85460 7.15983 314 ft 19 kts 137°
2026-05-04 19:54 50.85379 7.16101 314 ft 14 kts 136°
2026-05-04 19:54 50.85332 7.16194 314 ft 6 kts 96°
2026-05-04 19:54 50.85331 7.16269 312 ft 7 kts 87°
2026-05-04 19:54 50.85343 7.16356 314 ft 11 kts 71°
2026-05-04 19:55 50.85395 7.16464 314 ft 13 kts 37°
2026-05-04 19:55 50.85476 7.16515 314 ft 13 kts
2026-05-04 19:55 50.85562 7.16498 315 ft 13 kts 334°
2026-05-04 19:55 50.85689 7.16322 316 ft 55 kts 317°
2026-05-04 19:56 50.86257 7.15507 319 ft 159 kts 318°
2026-05-04 19:56 50.87184 7.14143 1235 ft 192 kts 317°
2026-05-04 19:56 50.88192 7.12678 2365 ft 203 kts 316°
2026-05-04 19:56 50.89276 7.11138 3157 ft 214 kts 316°
2026-05-04 19:57 50.90360 7.09496 3997 ft 219 kts 306°
2026-05-04 19:57 50.91066 7.07391 4881 ft 217 kts 278°
2026-05-04 19:57 50.91101 7.05047 5806 ft 212 kts 253°
2026-05-04 19:57 50.90815 7.03578 6420 ft 211 kts 245°
2026-05-04 19:58 50.90074 7.00453 7015 ft 248 kts 246°
2026-05-04 19:58 50.89658 6.98698 7403 ft 260 kts 246°
2026-05-04 19:58 50.88799 6.95069 8690 ft 268 kts 246°
2026-05-04 19:58 50.88138 6.92278 9576 ft 273 kts 246°
2026-05-04 19:59 50.87683 6.90365 9981 ft 276 kts 246°
2026-05-04 19:59 50.86752 6.86458 10724 ft 304 kts 246°
2026-05-04 19:59 50.86238 6.84313 10886 ft 325 kts 247°
2026-05-04 19:59 50.85387 6.80757 11198 ft 354 kts 247°
2026-05-04 20:00 50.84210 6.75820 12319 ft 368 kts 247°
2026-05-04 20:00 50.83609 6.73299 12972 ft 372 kts 248°
2026-05-04 20:00 50.82372 6.68116 14276 ft 380 kts 248°
2026-05-04 20:00 50.81750 6.65519 14865 ft 383 kts 248°
2026-05-04 20:01 50.80798 6.61548 15754 ft 389 kts 248°
2026-05-04 20:01 50.79832 6.57524 16664 ft 393 kts 248°
2026-05-04 20:01 50.78852 6.53446 17493 ft 401 kts 247°
2026-05-04 20:01 50.77853 6.49298 18307 ft 407 kts 247°
2026-05-04 20:02 50.76836 6.45097 19068 ft 410 kts 247°
2026-05-04 20:02 50.75811 6.40879 19892 ft 412 kts 247°
2026-05-04 20:02 50.74780 6.36642 20721 ft 415 kts 247°
2026-05-04 20:02 50.73741 6.32370 21475 ft 419 kts 247°
2026-05-04 20:03 50.72692 6.28060 22203 ft 423 kts 247°
2026-05-04 20:03 50.71630 6.23706 22942 ft 427 kts 247°
2026-05-04 20:03 50.70558 6.19319 23693 ft 429 kts 246°
2026-05-04 20:03 50.69480 6.14924 24403 ft 430 kts 246°
2026-05-04 20:04 50.68400 6.10524 25065 ft 432 kts 246°
2026-05-04 20:04 50.67324 6.06150 25659 ft 436 kts 246°
2026-05-04 20:04 50.66205 6.01602 26056 ft 444 kts 246°
2026-05-04 20:04 50.65094 5.97112 26594 ft 446 kts 246°
2026-05-04 20:05 50.63965 5.92548 27294 ft 446 kts 245°
2026-05-04 20:05 50.62837 5.88000 27972 ft 446 kts 245°
2026-05-04 20:05 50.61691 5.83451 28556 ft 443 kts 243°
2026-05-04 20:05 50.60090 5.79311 28845 ft 444 kts 227°
2026-05-04 20:06 50.57750 5.76165 29300 ft 444 kts 211°
2026-05-04 20:06 50.54969 5.74117 30059 ft 439 kts 200°
2026-05-04 20:06 50.52043 5.72827 30741 ft 436 kts 192°
2026-05-04 20:06 50.49001 5.72515 30975 ft 444 kts 178°
2026-05-04 20:07 50.45933 5.73116 30977 ft 444 kts 174°
2026-05-04 20:07 50.39842 5.74552 30972 ft 442 kts 175°
2026-05-04 20:08 50.33748 5.75805 30973 ft 442 kts 176°
2026-05-04 20:08 50.27633 5.76960 30968 ft 442 kts 176°
2026-05-04 20:09 50.21555 5.78107 30989 ft 443 kts 176°
2026-05-04 20:09 50.15431 5.79263 30975 ft 444 kts 176°
2026-05-04 20:10 50.09304 5.80476 30988 ft 445 kts 173°
2026-05-04 20:10 50.03309 5.82928 30982 ft 449 kts 165°
2026-05-04 20:11 49.97380 5.86071 30962 ft 450 kts 165°
2026-05-04 20:11 49.91424 5.89157 30977 ft 451 kts 165°
2026-05-04 20:12 49.85518 5.92195 30937 ft 446 kts 165°
2026-05-04 20:12 49.79652 5.95200 30960 ft 444 kts 165°
2026-05-04 20:13 49.73765 5.98207 30969 ft 446 kts 165°
2026-05-04 20:13 49.67854 6.01222 30967 ft 448 kts 165°
2026-05-04 20:14 49.61934 6.04236 30971 ft 447 kts 165°
2026-05-04 20:14 49.56060 6.07218 30960 ft 447 kts 165°
2026-05-04 20:15 49.50195 6.10432 30967 ft 450 kts 159°
2026-05-04 20:15 49.44714 6.15173 30970 ft 454 kts 150°
2026-05-04 20:16 49.39692 6.21163 30980 ft 457 kts 145°
2026-05-04 20:16 49.34764 6.27339 30960 ft 457 kts 145°
2026-05-04 20:17 49.29825 6.33468 30972 ft 456 kts 146°
2026-05-04 20:17 49.24878 6.39556 30974 ft 456 kts 146°
2026-05-04 20:18 49.19929 6.45622 30985 ft 456 kts 146°
2026-05-04 20:18 49.14977 6.51677 30988 ft 456 kts 146°
2026-05-04 20:19 49.10025 6.57719 30986 ft 456 kts 146°
2026-05-04 20:19 49.05100 6.63714 30962 ft 456 kts 146°
2026-05-04 20:20 48.99934 6.69226 30967 ft 448 kts 159°
2026-05-04 20:20 48.93956 6.71517 30988 ft 442 kts 178°
2026-05-04 20:21 48.87828 6.71280 30998 ft 442 kts 184°
2026-05-04 20:21 48.78568 6.70806 30980 ft 445 kts 183°
2026-05-04 20:22 48.72370 6.70554 30987 ft 445 kts 183°
2026-05-04 20:22 48.66216 6.70317 30983 ft 445 kts 183°
2026-05-04 20:23 48.60034 6.70079 30996 ft 444 kts 183°
2026-05-04 20:23 48.53870 6.69840 30988 ft 443 kts 183°
2026-05-04 20:24 48.47712 6.69602 30984 ft 442 kts 183°
2026-05-04 20:24 48.41559 6.69364 30990 ft 442 kts 183°
2026-05-04 20:25 48.35400 6.69129 30986 ft 442 kts 183°
2026-05-04 20:25 48.29237 6.68898 30985 ft 443 kts 183°
2026-05-04 20:26 48.23069 6.68668 30997 ft 443 kts 183°
2026-05-04 20:26 48.16889 6.68437 30987 ft 444 kts 183°
2026-05-04 20:27 48.10755 6.68207 31007 ft 444 kts 183°
2026-05-04 20:27 48.04563 6.67978 31005 ft 445 kts 183°
2026-05-04 20:28 47.98374 6.67749 31001 ft 445 kts 183°
2026-05-04 20:28 47.92182 6.67520 30992 ft 445 kts 183°
2026-05-04 20:29 47.85977 6.67290 31005 ft 445 kts 183°
2026-05-04 20:29 47.79813 6.67064 30993 ft 445 kts 184°
2026-05-04 20:30 47.73615 6.66836 30996 ft 446 kts 184°
2026-05-04 20:30 47.67414 6.66609 30999 ft 446 kts 184°
2026-05-04 20:31 47.61202 6.66381 30999 ft 447 kts 184°
2026-05-04 20:31 47.54985 6.66155 30998 ft 447 kts 184°
2026-05-04 20:32 47.48769 6.65930 30996 ft 447 kts 184°
2026-05-04 20:32 47.42544 6.65703 31000 ft 447 kts 184°
2026-05-04 20:33 47.36330 6.65474 30976 ft 446 kts 185°
2026-05-04 20:33 47.30130 6.65234 30992 ft 445 kts 185°
2026-05-04 20:34 47.23980 6.64596 31011 ft 439 kts 196°
2026-05-04 20:34 47.18432 6.61004 31034 ft 438 kts 213°
2026-05-04 20:35 47.13856 6.55238 31006 ft 437 kts 222°
2026-05-04 20:35 47.09371 6.49195 31003 ft 438 kts 222°
2026-05-04 20:36 47.04844 6.43213 31006 ft 437 kts 221°
2026-05-04 20:36 47.00312 6.37272 31001 ft 437 kts 221°
2026-05-04 20:37 46.95803 6.31376 30989 ft 430 kts 221°
2026-05-04 20:37 46.93604 6.28507 30910 ft 417 kts 221°
2026-05-04 20:37 46.91439 6.25687 30235 ft 416 kts 221°
2026-05-04 20:38 46.89284 6.22884 29537 ft 412 kts 221°
2026-05-04 20:38 46.87145 6.20105 28856 ft 412 kts 221°
2026-05-04 20:38 46.84986 6.17303 28206 ft 420 kts 221°
2026-05-04 20:38 46.82783 6.14445 27526 ft 425 kts 221°
2026-05-04 20:39 46.80581 6.11592 26838 ft 421 kts 220°
2026-05-04 20:39 46.78407 6.08774 26203 ft 415 kts 220°
2026-05-04 20:39 46.76262 6.05995 25554 ft 410 kts 220°
2026-05-04 20:39 46.74134 6.03250 24934 ft 405 kts 220°
2026-05-04 20:40 46.72028 6.00525 24117 ft 406 kts 221°
2026-05-04 20:40 46.70134 5.97513 23212 ft 411 kts 231°
2026-05-04 20:40 46.68601 5.93977 22324 ft 414 kts 239°
2026-05-04 20:40 46.67302 5.90244 21615 ft 411 kts 242°
2026-05-04 20:41 46.66081 5.86505 20993 ft 406 kts 242°
2026-05-04 20:41 46.64892 5.82818 20692 ft 394 kts 243°
2026-05-04 20:41 46.63742 5.79238 20700 ft 393 kts 243°
2026-05-04 20:41 46.62565 5.75577 20713 ft 405 kts 243°
2026-05-04 20:42 46.61371 5.71863 20716 ft 407 kts 243°
2026-05-04 20:42 46.60169 5.68130 20404 ft 410 kts 243°
2026-05-04 20:42 46.58956 5.64367 19739 ft 409 kts 242°
2026-05-04 20:42 46.57771 5.60674 19127 ft 392 kts 243°
2026-05-04 20:43 46.56578 5.57222 18430 ft 376 kts 239°
2026-05-04 20:43 46.55275 5.53852 17536 ft 387 kts 238°
2026-05-04 20:43 46.53916 5.50469 16795 ft 387 kts 238°
2026-05-04 20:43 46.52497 5.47168 16126 ft 384 kts 235°
2026-05-04 20:44 46.51485 5.45049 15591 ft 385 kts 233°
2026-05-04 20:44 46.49919 5.41902 14885 ft 384 kts 233°
2026-05-04 20:44 46.47836 5.37795 14081 ft 379 kts 233°
2026-05-04 20:44 46.46272 5.34734 13455 ft 375 kts 233°
2026-05-04 20:45 46.44723 5.31721 12843 ft 369 kts 233°
2026-05-04 20:45 46.43201 5.28764 12296 ft 363 kts 232°
2026-05-04 20:45 46.42200 5.26844 11939 ft 359 kts 231°
2026-05-04 20:45 46.40048 5.23166 11146 ft 357 kts 228°
2026-05-04 20:46 46.38416 5.20502 10767 ft 349 kts 227°
2026-05-04 20:46 46.37366 5.18793 10691 ft 337 kts 227°
2026-05-04 20:46 46.35839 5.16310 10553 ft 322 kts 227°
2026-05-04 20:46 46.34384 5.13944 10418 ft 308 kts 227°
2026-05-04 20:47 46.33013 5.11733 10266 ft 282 kts 225°
2026-05-04 20:47 46.31486 5.10103 10165 ft 270 kts 207°
2026-05-04 20:47 46.29782 5.09008 10025 ft 266 kts 199°
2026-05-04 20:47 46.28057 5.08005 9632 ft 272 kts 206°
2026-05-04 20:48 46.26361 5.06771 9287 ft 273 kts 206°
2026-05-04 20:48 46.24650 5.05650 8975 ft 267 kts 201°
2026-05-04 20:48 46.22897 5.04860 8690 ft 261 kts 194°
2026-05-04 20:48 46.21130 5.04392 8407 ft 255 kts 188°
2026-05-04 20:49 46.19362 5.04154 8121 ft 255 kts 185°
2026-05-04 20:49 46.17597 5.04077 7840 ft 256 kts 182°
2026-05-04 20:49 46.15812 5.04111 7541 ft 257 kts 180°
2026-05-04 20:49 46.14025 5.04241 7267 ft 258 kts 179°
2026-05-04 20:50 46.12236 5.04433 6981 ft 258 kts 178°
2026-05-04 20:50 46.10451 5.04648 6674 ft 256 kts 178°
2026-05-04 20:50 46.08688 5.04866 6387 ft 253 kts 178°
2026-05-04 20:50 46.06946 5.05082 6076 ft 250 kts 178°
2026-05-04 20:51 46.05229 5.05295 5780 ft 245 kts 178°
2026-05-04 20:51 46.03564 5.05500 5509 ft 241 kts 177°
2026-05-04 20:51 46.01906 5.05705 5246 ft 237 kts 177°
2026-05-04 20:51 46.00277 5.05905 4974 ft 233 kts 177°
2026-05-04 20:52 45.98668 5.06103 4698 ft 230 kts 177°
2026-05-04 20:52 45.97084 5.06298 4494 ft 226 kts 176°
2026-05-04 20:52 45.95506 5.06492 4388 ft 231 kts 176°
2026-05-04 20:52 45.93891 5.06690 4294 ft 235 kts 176°
2026-05-04 20:53 45.92256 5.06891 4097 ft 234 kts 176°
2026-05-04 20:53 45.90708 5.07083 3984 ft 213 kts 177°
2026-05-04 20:53 45.89295 5.07257 3810 ft 195 kts 177°
2026-05-04 20:53 45.88000 5.07416 3556 ft 179 kts 177°
2026-05-04 20:54 45.86803 5.07562 3346 ft 171 kts 177°
2026-05-04 20:54 45.85604 5.07707 3142 ft 173 kts 176°
2026-05-04 20:54 45.84418 5.07854 2955 ft 173 kts 176°
2026-05-04 20:54 45.83230 5.07999 2773 ft 168 kts 176°
2026-05-04 20:55 45.82105 5.08136 2508 ft 157 kts 176°
2026-05-04 20:55 45.81044 5.08265 2328 ft 149 kts 176°
2026-05-04 20:55 45.80043 5.08388 2115 ft 140 kts 176°
2026-05-04 20:55 45.79079 5.08506 1923 ft 138 kts 176°
2026-05-04 20:56 45.78118 5.08627 1711 ft 139 kts 175°
2026-05-04 20:56 45.77142 5.08741 1534 ft 144 kts 175°
2026-05-04 20:56 45.76149 5.08855 1309 ft 141 kts 175°
2026-05-04 20:56 45.75183 5.08982 1167 ft 141 kts 173°
2026-05-04 20:57 45.74199 5.09107 950 ft 142 kts 175°
2026-05-04 20:57 45.73232 5.09226 804 ft 135 kts 175°
2026-05-04 20:57 45.72414 5.09322 816 ft 95 kts 175°
2026-05-04 20:57 45.71939 5.09378 823 ft 47 kts 176°
2026-05-04 20:58 45.71727 5.09315 827 ft 22 kts 204°
2026-05-04 20:58 45.71637 5.09174 819 ft 18 kts 264°
2026-05-04 20:58 45.71623 5.08988 819 ft 19 kts 264°
2026-05-04 20:58 45.71613 5.08830 814 ft 12 kts 265°
2026-05-04 20:59 45.71605 5.08688 812 ft 14 kts 265°
2026-05-04 20:59 45.71598 5.08580 809 ft 11 kts 263°
2026-05-04 20:59 45.71541 5.08513 807 ft 12 kts 182°
2026-05-04 20:59 45.71460 5.08521 811 ft 10 kts 175°
2026-05-04 21:00 45.71390 5.08529 814 ft 10 kts 175°
2026-05-04 21:00 45.71321 5.08539 817 ft 10 kts 174°
2026-05-04 21:00 45.71251 5.08548 815 ft 10 kts 174°
2026-05-04 21:00 45.71182 5.08560 816 ft 10 kts 167°
2026-05-04 21:01 45.71124 5.08614 818 ft 10 kts 128°
2026-05-04 21:01 45.71062 5.08655 820 ft 12 kts 179°
2026-05-04 21:01 45.70976 5.08650 821 ft 12 kts 184°
2026-05-04 21:01 45.70891 5.08641 820 ft 12 kts 184°
2026-05-04 21:02 45.70856 5.08637 818 ft 4 kts 190°
2026-05-04 21:02 45.70838 5.08604 816 ft 5 kts 249°
2026-05-04 21:02 45.70838 5.08553 819 ft 5 kts 274°
2026-05-04 21:02 45.70839 5.08523 821 ft 3 kts 273°
2026-05-04 21:03 45.70840 5.08512 821 ft 0 kts 273°